Olean, NY

5:35 PM EDT on March 30, 2017 (GMT -0400)
Cattaraugus County-Olean

Weather History for KOLE - August, 2014

Change the Weather History Date:

Tuesday, August 26, 2014

  Actual Average (KBFD) Record (KBFD)
Temperature  
Mean Temperature 68 °F -  
Max Temperature 78 °F 75 °F 88 °F (1959)
Min Temperature 57 °F 51 °F 36 °F (1958)
Cooling Degree Days 2    
Growing Degree Days 18 (Base 50)    
Moisture  
Dew Point 64 °F    
Average Humidity 90    
Maximum Humidity 100    
Minimum Humidity 69    
Precipitation  
Precipitation 0.00 in - - ()
Sea Level Pressure  
Sea Level Pressure 30.17 in    
Wind  
Wind Speed 5 mph (SW)    
Max Wind Speed 8 mph    
Max Gust Speed -    
Visibility 10 miles    
Events      
Averages and records for this station are not official NWS values.
T = Trace of Precipitation, MM = Missing Value Source: NWS Daily Summary

Daily Weather History Graph

Daily Weather History Graph

Search for Another Location

Airport or City:

Trip Planner

Search our weather history database for the weather conditions in past years. The results will help you decide how hot, cold, wet, or windy it might be!

Date:

Astronomy

Aug. 26, 2014 Rise Set
Actual Time 6:32 AM EDT 7:57 PM EDT
Civil Twilight 6:03 AM EDT 8:26 PM EDT
Nautical Twilight 5:27 AM EDT 9:01 PM EDT
Astronomical Twilight 4:50 AM EDT 9:38 PM EDT
Moon 7:33 AM EDT (8/26) 8:15 PM EDT (8/26)
Length of Visible Light 14h 23m
Length of Day
13h 24m
New Moon, 1% of the Moon is Illuminated
Aug 26
New Moon
Sep 2
First Quarter
Sep 8
Full
Sep 15
Last Quarter
Sep 24
New

Hourly Weather History & Observations

Time (EDT) Temp. Dew Point Humidity Pressure Visibility Wind Dir Wind Speed Gust Speed Precip Events Conditions
12:15 AM 60.8 °F 60.8 °F 100% 30.19 in 10.0 mi SSW 4.6 mph - N/A   Clear
12:35 AM 59.0 °F 59.0 °F 100% 30.20 in 10.0 mi SSW 5.8 mph - N/A   Clear
12:55 AM 60.8 °F 60.8 °F 100% 30.19 in 10.0 mi SSW 6.9 mph - N/A   Clear
1:15 AM 59.0 °F 59.0 °F 100% 30.19 in 10.0 mi SSW 6.9 mph - N/A   Clear
1:35 AM 59.0 °F 59.0 °F 100% 30.18 in 10.0 mi SSW 5.8 mph - N/A   Clear
1:55 AM 59.0 °F 59.0 °F 100% 30.18 in 10.0 mi SSW 6.9 mph - N/A   Clear
2:15 AM 59.0 °F 59.0 °F 100% 30.18 in 10.0 mi SSW 5.8 mph - N/A   Clear
2:35 AM 59.0 °F 59.0 °F 100% 30.18 in 10.0 mi SSW 5.8 mph - N/A   Clear
2:55 AM 59.0 °F 59.0 °F 100% 30.18 in 10.0 mi SSW 5.8 mph - N/A   Clear
3:15 AM 59.0 °F 59.0 °F 100% 30.18 in 10.0 mi SSW 6.9 mph - N/A   Clear
3:35 AM 57.2 °F 57.2 °F 100% 30.19 in 10.0 mi SW 4.6 mph - N/A   Clear
3:55 AM 57.2 °F 57.2 °F 100% 30.19 in 10.0 mi SW 5.8 mph - N/A   Clear
4:15 AM 57.2 °F 57.2 °F 100% 30.18 in 10.0 mi SSW 6.9 mph - N/A   Clear
4:35 AM 57.2 °F 57.2 °F 100% 30.19 in 10.0 mi SSW 5.8 mph - N/A   Clear
4:55 AM 57.2 °F 57.2 °F 100% 30.20 in 10.0 mi SSW 5.8 mph - N/A   Clear
5:15 AM 57.2 °F 57.2 °F 100% 30.19 in 10.0 mi SSW 4.6 mph - N/A   Clear
5:35 AM 57.2 °F 57.2 °F 100% 30.20 in 10.0 mi SSW 5.8 mph - N/A   Clear
5:55 AM 57.2 °F 57.2 °F 100% 30.19 in 10.0 mi SSW 5.8 mph - N/A   Clear
6:15 AM 57.2 °F 57.2 °F 100% 30.20 in 10.0 mi SW 3.5 mph - N/A   Clear
6:35 AM 57.2 °F 57.2 °F 100% 30.21 in 10.0 mi SW 4.6 mph - N/A   Clear
6:55 AM 59.0 °F 59.0 °F 100% 30.21 in 10.0 mi SW 4.6 mph - N/A   Clear
7:15 AM 59.0 °F 59.0 °F 100% 30.20 in 10.0 mi SSW 8.1 mph - N/A   Scattered Clouds
7:35 AM 59.0 °F 59.0 °F 100% 30.20 in 10.0 mi SSW 5.8 mph - N/A   Clear
7:55 AM 59.0 °F 59.0 °F 100% 30.20 in 10.0 mi SSW 8.1 mph - N/A   Clear
8:15 AM 59.0 °F 59.0 °F 100% 30.21 in 10.0 mi SSW 8.1 mph - N/A   Clear
8:35 AM 60.8 °F 60.8 °F 100% 30.21 in 10.0 mi SSW 3.5 mph - N/A   Clear
8:55 AM 62.6 °F 60.8 °F 94% 30.21 in 10.0 mi SSW 6.9 mph - N/A   Clear
9:15 AM 62.6 °F 60.8 °F 94% 30.21 in 10.0 mi SSW 5.8 mph - N/A   Clear
9:55 AM 62.6 °F 60.8 °F 94% 30.22 in 10.0 mi SSW 5.8 mph - N/A   Scattered Clouds
10:55 AM 68.0 °F 64.4 °F 88% 30.21 in 10.0 mi SSW 5.8 mph - N/A   Clear
11:15 AM 69.8 °F 64.4 °F 83% 30.22 in 10.0 mi SW 4.6 mph - N/A   Clear
11:35 AM 69.8 °F 64.4 °F 83% 30.22 in 10.0 mi SSW 4.6 mph - N/A   Scattered Clouds
11:55 AM 71.6 °F 64.4 °F 78% 30.22 in 10.0 mi SW 4.6 mph - N/A   Mostly Cloudy
12:15 PM 71.6 °F 64.4 °F 78% 30.21 in 10.0 mi SSW 5.8 mph - N/A   Scattered Clouds
12:35 PM 73.4 °F 64.4 °F 73% 30.21 in 10.0 mi SW 3.5 mph - N/A   Clear
12:55 PM 73.4 °F 66.2 °F 78% 30.21 in 10.0 mi South 4.6 mph - N/A   Mostly Cloudy
1:15 PM 73.4 °F 68.0 °F 83% 30.21 in 10.0 mi SW 6.9 mph - N/A   Mostly Cloudy
1:35 PM 73.4 °F 68.0 °F 83% 30.20 in 10.0 mi SSW 6.9 mph - N/A   Scattered Clouds
1:55 PM 73.4 °F 68.0 °F 83% 30.19 in 10.0 mi South 8.1 mph - N/A   Mostly Cloudy
2:15 PM 77.0 °F 68.0 °F 74% 30.18 in 10.0 mi WSW 4.6 mph - N/A   Mostly Cloudy
2:35 PM 77.0 °F 68.0 °F 74% 30.18 in 10.0 mi SSW 8.1 mph - N/A   Mostly Cloudy
2:55 PM 77.0 °F 66.2 °F 69% 30.17 in 10.0 mi SW 6.9 mph - N/A   Mostly Cloudy
3:15 PM 78.8 °F 68.0 °F 69% 30.16 in 10.0 mi SSW 8.1 mph - N/A   Scattered Clouds
3:35 PM 77.0 °F 66.2 °F 69% 30.15 in 10.0 mi SSW 6.9 mph - N/A   Scattered Clouds
3:55 PM 78.8 °F 68.0 °F 69% 30.15 in 10.0 mi SW 5.8 mph - N/A   Clear
4:15 PM 77.0 °F 68.0 °F 74% 30.15 in 10.0 mi SW 5.8 mph - N/A   Clear
4:35 PM 77.0 °F 68.0 °F 74% 30.15 in 10.0 mi SW 3.5 mph - N/A   Scattered Clouds
4:55 PM 77.0 °F 68.0 °F 74% 30.14 in 10.0 mi Calm Calm - N/A   Scattered Clouds
5:15 PM 77.0 °F 68.0 °F 74% 30.13 in 10.0 mi SW 4.6 mph - N/A   Scattered Clouds
5:35 PM 77.0 °F 68.0 °F 74% 30.13 in 10.0 mi SW 6.9 mph - N/A   Scattered Clouds
5:55 PM 77.0 °F 68.0 °F 74% 30.13 in 10.0 mi SW 4.6 mph - N/A   Scattered Clouds
6:15 PM 75.2 °F 68.0 °F 78% 30.13 in 10.0 mi SW 3.5 mph - N/A   Scattered Clouds
6:35 PM 75.2 °F 68.0 °F 78% 30.14 in 10.0 mi WSW 3.5 mph - N/A   Mostly Cloudy
6:55 PM 75.2 °F 68.0 °F 78% 30.14 in 10.0 mi WSW 3.5 mph - N/A   Mostly Cloudy
7:15 PM 73.4 °F 69.8 °F 88% 30.13 in 10.0 mi Calm Calm - N/A   Clear
7:35 PM 71.6 °F 69.8 °F 94% 30.14 in 10.0 mi Calm Calm - N/A   Clear
7:55 PM 71.6 °F 68.0 °F 88% 30.13 in 10.0 mi SW 4.6 mph - N/A   Clear
8:15 PM 71.6 °F 68.0 °F 88% 30.13 in 10.0 mi SW 4.6 mph - N/A   Clear
8:35 PM 71.6 °F 68.0 °F 88% 30.13 in 10.0 mi SW 3.5 mph - N/A   Clear
8:55 PM 71.6 °F 68.0 °F 88% 30.13 in 10.0 mi SW 4.6 mph - N/A   Clear
9:15 PM 69.8 °F 68.0 °F 94% 30.12 in 10.0 mi SSW 4.6 mph - N/A   Clear
9:35 PM 69.8 °F 69.8 °F 100% 30.12 in 10.0 mi SSW 3.5 mph - N/A   Clear
9:55 PM 69.8 °F 69.8 °F 100% 30.12 in 10.0 mi SW 3.5 mph - N/A   Clear
10:15 PM 69.8 °F 69.8 °F 100% 30.12 in 10.0 mi SW 4.6 mph - N/A   Scattered Clouds
10:35 PM 69.8 °F 69.8 °F 100% 30.12 in 10.0 mi SW 5.8 mph - N/A   Mostly Cloudy
10:55 PM 69.8 °F 69.8 °F 100% 30.11 in 10.0 mi SSW 5.8 mph - N/A   Mostly Cloudy
11:15 PM 68.0 °F 68.0 °F 100% 30.11 in 10.0 mi SSW 4.6 mph - N/A   Overcast
11:35 PM 68.0 °F 68.0 °F 100% 30.11 in 10.0 mi SSW 4.6 mph - N/A   Mostly Cloudy
11:55 PM 68.0 °F 68.0 °F 100% 30.10 in 10.0 mi SSW 4.6 mph - N/A   Clear